User: anonymous   Login
Location: Caltech
(34.1382°N, 118.1253°W)
Time: 08:25:48
(UTC-07:00)
Language:

Cosmos 1939 Rocket - Orbit

View from above orbital plane
View from above orbital plane
View from above satellite
View from above satellite

Ground track
Ground track

The orbit data is extracted from the following two-line orbital elements,

1 19046U 88032B   15144.70859893  .00001208  00000-0  97614-4 0  9997
2 19046 097.6165 197.7202 0040634 023.1502 337.1541 15.01080058459408
Epoch (UTC): 24 May 2015 17:00:22
Eccentricity: 0.0040634
inclination: 97.6165°
perigee height: 535 km
apogee height: 592 km
right ascension of ascending node: 197.7202°
argument of perigee: 23.1502°
revolutions per day: 15.01080058
mean anomaly at epoch: 337.1541°
orbit number at epoch: 45940

The dashed part of the orbit path shows where the satellite is in the earth's shadow,  

DLR